logo
Search for airport 
image banner adimage banner adimage banner ad
image banner ad

MMCB - Cuernavaca Aeropuerto Internacional Gral. Mariano Matamoros

Located in Cuernavaca, Mexico

ICAO - MMCB, IATA - CVJ

Data provided by Airmate  

General information

Coordinates: N18°50'4" W99°15'42"
Elevation is 4295 feet MSL.
 
Rated:
View ratings:
[VIEW]
View others Airports in Moreloa

Operational data

Special qualification required
Current time UTC:
Current local time:
Weather
METAR: MMCB 140042Z 31003KT 7SM SKC 32/05 A3004 RMK HZY
TAF: TAF MMCB 131606Z 1318/1418 16008KT 6SM HZ SCT025 FM140300 35004KT 6SM HZ SKC TEMPO 1412/1416 4SM HZ FM141700 16005KT 6SM HZ SKC
View NOTAMs / SUP AIP / TFR affecting this airport [VIEW]
Communications frequencies: [VIEW]

Runways:

RWY identifierQFULength (ft)Width (ft)SurfaceLDA (ft)
0332°9180148UNK
21212°9180148UNK

Airport contact information

Address: Cuernavaca Mexico

Satellite view of MMCB